Regional Weather Roundup
Issued by NWS

Home | Current Version | Previous Version | Text Only | Print | Product List | Glossary Off
Versions: 1 2 3 4 5 6 7 8 9 10 11 12 13 14 15 16 17 18 19 20 21 22 23 24 25 26 27 28 29 30 31 32 33 34 35 36 37 38 39 40 41 42 43 44 45 46 47 48 49 50

508
ASUS43 KIND 301259
RWRIN

WEATHER ROUNDUP FOR INDIANA
NATIONAL WEATHER SERVICE INDIANAPOLIS IN
900 AM EDT SUN APR 30 2017

NOTE: "FAIR" INDICATES FEW OR NO CLOUDS BELOW 12,000 FEET WITH NO
SIGNIFICANT WEATHER AND/OR OBSTRUCTIONS TO VISIBILITY.

* - STATION DOES NOT REPORT WEATHER SUCH AS PRECIPITATION OR FOG.

+ - STATION NOT QUALITY CONTROLLED BY THE NATIONAL WEATHER SERVICE.
    USE DATA WITH CAUTION...ESPECIALLY DEWPOINT AND RELATIVE
    HUMIDITY OBSERVATIONS.

INZ001>003-010>013-019-020-301400-
NORTHWEST INDIANA

CITY           SKY/WX    TMP DP  RH WIND       PRES   REMARKS
GARY /AIRPORT/ LGT RAIN  46  45  93 N7        29.87F
MONTICELLO +   LGT RAIN  48  47  95 E6        29.82F
RENSSELAER +   LGT RAIN  46  45  93 E16       29.81F
VALPARAISO     LGT RAIN  48  47  96 NE9       29.87F FOG

$$

LMZ046-743>745-301400-
SOUTHERN LAKE MICHIGAN

STATION/POSITION TIME  TEMP    WIND        PRES    WAVE
                       AIR SEA DIR/SP/G            HT
                 (UTC) (F)     (DEG/KT/KT) (MB)    (FT)
BURNS HARBOR     1240   47      60/ 10/ 11 1012.2F
MICHIGAN CITY    1230   46      40/  6/  7   N/A
5NW MICH CITY    1250   46 48                N/A     3

$$

INZ004-005-014>016-021>024-301400-
NORTH CENTRAL INDIANA

CITY           SKY/WX    TMP DP  RH WIND       PRES   REMARKS
GOSHEN         LGT RAIN  46  43  89 E13       29.88F FOG
SOUTH BEND     LGT RAIN  45  45 100 E12       29.88F FOG
WARSAW +       LGT RAIN  45  43  93 E8        29.88F

$$

INZ006>009-017-018-025>027-301400-
NORTHEAST INDIANA

CITY           SKY/WX    TMP DP  RH WIND       PRES   REMARKS
ANGOLA *+      CLOUDY    45  36  70 E10       29.92F
FORT WAYNE     LGT RAIN  48  46  93 E12       29.91F VSB 3/4
KENDALLVILLE + CLOUDY    45  45 100 E12G17    29.92F FOG

$$

INZ028-029-035-036-043>045-051>053-301400-
WEST CENTRAL INDIANA

CITY           SKY/WX    TMP DP  RH WIND       PRES   REMARKS
CRAWFORDSVL +  CLOUDY    57  57 100 E9        29.76F FOG
GREENCASTLE +  CLOUDY    63  63 100 SE10      29.77F
LAFAYETTE      LGT RAIN  51  51 100 NE9       29.79F FOG
TERRE HAUTE    CLOUDY    68  63  84 S15G23    29.76S

$$

INZ030>032-037>040-046>048-054>057-064-065-301400-
CENTRAL INDIANA

CITY           SKY/WX    TMP DP  RH WIND       PRES   REMARKS
CP ATTERBURY + LGT RAIN  66  63  88 S12G17    29.84F
COLUMBUS       LGT RAIN  68  63  83 S12       29.85F
INDIANAPOLIS   CLOUDY    65  62  90 SE15      29.79F
-EAGLE CREEK   CLOUDY    61  58  90 SE5       29.79F
KOKOMO +       CLOUDY    49  48  97 E10       29.84F FOG
SHELBYVILLE    LGT RAIN  72  63  73 S22G28    29.84F

$$

INZ033-034-041-042-049-050-058-059-301400-
EAST CENTRAL INDIANA

CITY           SKY/WX    TMP DP  RH WIND       PRES   REMARKS
MUNCIE         CLOUDY    61  57  87 SE7       29.86F
RICHMOND +     CLOUDY    61  59  94 SE12      29.92F FOG

$$

INZ060-061-067>069-081>083-085>088-301400-
SOUTHWEST INDIANA

CITY           SKY/WX    TMP DP  RH WIND       PRES   REMARKS
EVANSVILLE     LGT RAIN  66  64  93 S9        29.87R

$$

INZ062-063-066-070>080-084-089>092-301400-
SOUTH CENTRAL AND SOUTHEAST INDIANA

CITY           SKY/WX    TMP DP  RH WIND       PRES   REMARKS
BLOOMINGTON    PTSUNNY   68  64  87 S18G26    29.81F
MADISON *+     CLOUDY    72  64  78 S8        29.91F
SEYMOUR +      CLOUDY    72  64  78 SE12      29.86F

$$





USA.gov is the U.S. government's official web portal to all federal, state and local government web resources and services.